[[{"header":{"parameterUnit":"m.s-1","parameterCategory":2,"la1":30.2991,"la2":30.254,"lo1":-89.0895,"lo2":-89.0444,"dy":0.0017,"dx":0.0017,"nx":28,"ny":28,"refTime":"2025-01-18T03:00:00:Z","depth":"0","parameterNumber":2,"parameterNumberName":"U-component_of_CURRENTS"},"data":[0,0,0,0,0,0,0,0,0,0,0,0,0,0,0,0,0,0,0,0,0,0,0,0,0,0,0,0,0,0,0,0,0,0,0,0,0,0,0,0,0,0,0,0,0,0,0,0,0,0,0,0,0,0,0,0,0,0,0.2237,0.2239,0,0.2327,0.2327,0.2327,0.2254,0.2252,0.2249,0.2247,0.2178,0.2179,0.2179,0,0,0,0,0,0,0,0,0,0,0,0,0,0.2122,0.2123,0.2237,0.2239,0.2241,0.2327,0.2327,0.2327,0.2254,0.2252,0.2249,0.2246,0.2178,0.2179,0.2179,0,0,0,0,0,0,0,0,0,0,0,0,0,0.2179,0.2123,0.2237,0.2221,0.2221,0.2327,0.2327,0.2328,0.2255,0.2251,0.2248,0.2245,0.2178,0.2179,0.2179,0.2252,0,0,0.2181,0.2181,0,0,0,0,0,0,0,0,0.2176,0.2182,0.2221,0.2222,0.2223,0.2283,0.2262,0.2297,0.2256,0.2233,0.2247,0.2243,0.2207,0.2205,0.222,0.2249,0.2246,0.2181,0.2181,0.2181,0.2181,0,0,0,0,0,0,0,0.2172,0.2179,0.2264,0.2224,0.2225,0.2251,0.2253,0.2269,0.2229,0.2235,0.2232,0.2256,0.2204,0.2219,0.2217,0.2245,0.2181,0.2181,0.2181,0.2182,0.2271,0.2273,0,0,0,0,0,0,0.2176,0.2175,0.2261,0.2267,0.22,0.2256,0.2258,0.226,0.2232,0.2228,0.2259,0.2253,0.222,0.2217,0.2214,0.2278,0.2181,0.2182,0.2182,0.2269,0.2271,0.2273,0,0,0,0,0,0,0.2173,0.2182,0.2258,0.2231,0.2243,0.2261,0.2265,0.2264,0.2258,0.2254,0.2244,0.2252,0.2217,0.2213,0.2215,0.2274,0.2182,0.2182,0.2266,0.2269,0.2272,0.2418,0,0,0,0,0,0,0.2168,0.2179,0.2207,0.2231,0.2245,0.2293,0.2269,0.2269,0.2284,0.2275,0.2246,0.2237,0.2214,0.2215,0.2215,0.2273,0.2183,0.2264,0.2268,0.2271,0.241,0.2425,0.2438,0,0,0,0,0,0.2164,0.2228,0.2207,0.222,0.2273,0.2294,0.2302,0.2299,0.2287,0.228,0.2272,0.2237,0.2239,0.2217,0.2217,0.2277,0.2262,0.2267,0.2271,0.2404,0.2422,0.2438,0,0,0,0,0,0,0.2231,0.2229,0.2205,0.2274,0.2264,0.2283,0.2328,0.2304,0.2299,0.2288,0.2265,0.2257,0.2283,0.2257,0.2233,0.2312,0.2246,0.2251,0.2347,0.2364,0.2378,0.2382,0.2183,0,0,0,0,0,0.2252,0.2265,0.2263,0.2312,0.232,0.2316,0.2338,0.2305,0.2306,0.2299,0.2292,0.229,0.2314,0.2314,0.2316,0.2364,0.2375,0.24,0.2414,0.2426,0.243,0.2514,0.2537,0.2289,0.2289,0.2289,0,0,0.2287,0.23,0.2305,0.2323,0.2333,0.2359,0.2316,0.2331,0.2348,0.2297,0.2339,0.2335,0.2334,0.2384,0.2395,0.2364,0.2507,0.2432,0.2443,0.2439,0.2521,0.2546,0.2568,0.2292,0.2291,0.2291,0,0,0.2365,0.2377,0.2401,0.2401,0.2403,0.2402,0.2398,0.2395,0.2387,0.2421,0.24,0.243,0.2458,0.2479,0.2495,0.2589,0.2576,0.2583,0.2667,0.2751,0.2772,0.2791,0.2861,0.2885,0.2595,0.2595,0.2595,0,0.2412,0.2439,0.2416,0.2449,0.247,0.242,0.2445,0.2456,0.2448,0.246,0.244,0.2529,0.2519,0.2609,0.2637,0.2627,0.2657,0.2609,0.2772,0.2791,0.2808,0.2874,0.2899,0.2603,0.2602,0.2601,0.26,0,0.2474,0.2515,0.2548,0.2553,0.2568,0.2583,0.2577,0.2587,0.2588,0.2588,0.2655,0.2675,0.2719,0.274,0.2721,0.2839,0.2818,0.2782,0.2736,0.2843,0.2905,0.2928,0.2614,0.2611,0.2609,0.2607,0,0,0.2516,0.2572,0.2583,0.2591,0.2611,0.2614,0.2675,0.2694,0.2736,0.2755,0.2835,0.2898,0.2887,0.2904,0.29,0.2974,0.3131,0.2931,0.2932,0.3011,0.3316,0.3281,0.3302,0.3128,0.3132,0.3135,0.3321,0,0.2561,0.2641,0.2652,0.2709,0.2741,0.2731,0.2794,0.2801,0.2831,0.2897,0.293,0.3002,0.2958,0.2999,0.3067,0.3106,0.3194,0.3084,0.3189,0.3193,0.3158,0.3329,0.3219,0.3373,0.3343,0.3347,0.3349,0,0.2596,0.2647,0.2722,0.2769,0.2782,0.2811,0.2872,0.2911,0.2988,0.3019,0.3094,0.3114,0.3225,0.3177,0.3332,0.3262,0.33,0.3336,0.3344,0.3271,0.3201,0.3255,0.3415,0.3453,0.3384,0.3382,0.3379,0,0.2603,0.2681,0.274,0.2758,0.2823,0.2849,0.2873,0.2944,0.2983,0.3102,0.3162,0.3271,0.334,0.3426,0.3477,0.3424,0.3645,0.358,0.3594,0.3591,0.3497,0.3478,0.371,0.3713,0.3713,0.3712,0.3712,0,0.2644,0.2678,0.2742,0.2776,0.282,0.2856,0.2914,0.2968,0.3064,0.3126,0.3212,0.3303,0.3406,0.3519,0.3556,0.3659,0.3717,0.3653,0.3658,0.3544,0.3529,0.3548,0.3537,0.3719,0.3718,0.3716,0.3715,0,0.2639,0.2699,0.2743,0.2814,0.283,0.285,0.2903,0.2951,0.3058,0.316,0.3209,0.3357,0.3514,0.3616,0.3772,0.376,0.38,0.3879,0.3732,0.3716,0.3728,0.3726,0.3701,0.358,0.3943,0.3944,0.3944,0,0.263,0.2675,0.2746,0.2758,0.2783,0.2817,0.2849,0.2939,0.2996,0.3181,0.3235,0.3426,0.3536,0.3764,0.3824,0.3946,0.3841,0.3885,0.3761,0.3769,0.3771,0.3567,0.3449,0.3707,0.3706,0.3705,0.3704,0,0.2606,0.2644,0.2682,0.2715,0.2738,0.2771,0.2822,0.2869,0.2995,0.3094,0.3249,0.3366,0.3596,0.3684,0.3835,0.387,0.3749,0.3861,0.3924,0.3671,0.3409,0.3279,0.354,0.3693,0.3694,0.3695,0.3695,0.3696,0.2542,0.2557,0.2611,0.2622,0.2657,0.2697,0.2688,0.2772,0.2851,0.2967,0.3154,0.3303,0.3553,0.3754,0.3755,0.3803,0.3693,0.3752,0.3773,0.3582,0.3392,0.3627,0.3738,0.3739,0.3741,0.3742,0.3742,0,0.2439,0.2479,0.2501,0.2514,0.2515,0.2579,0.2641,0.2636,0.2678,0.2864,0.2977,0.3304,0.345,0.3635,0.3821,0.3774,0.3507,0.3725,0.3456,0.3358,0.3664,0.3585,0.3601,0.3601,0.3601,0.3601,0.3601,0.3601,0.2386,0.2379,0.2406,0.2366,0.2377,0.2346,0.2361,0.2405,0.2516,0.268,0.2867,0.3058,0.3592,0.3946,0.4008,0.3875,0.3624,0.3458,0.3438,0.3762,0.3766,0.3769,0.3698,0.3737,0.3738,0.2944,0.294,0.2936]},{"header":{"parameterUnit":"m.s-1","parameterCategory":2,"la1":30.2991,"la2":30.254,"lo1":-89.0895,"lo2":-89.0444,"dy":0.0017,"dx":0.0017,"nx":28,"ny":28,"refTime":"2025-01-18T03:00:00:Z","depth":"0","parameterNumber":3,"parameterNumberName":"V-component_of_CURRENTS"},"data":[0,0,0,0,0,0,0,0,0,0,0,0,0,0,0,0,0,0,0,0,0,0,0,0,0,0,0,0,0,0,0,0,0,0,0,0,0,0,0,0,0,0,0,0,0,0,0,0,0,0,0,0,0,0,0,0,0,0,-0.0731,-0.0732,0,-0.0764,-0.0765,-0.0765,-0.0737,-0.0736,-0.0735,-0.0734,-0.0747,-0.0749,-0.075,0,0,0,0,0,0,0,0,0,0,0,0,0,-0.0722,-0.0722,-0.0731,-0.0732,-0.0732,-0.0764,-0.0765,-0.0765,-0.0737,-0.0736,-0.0735,-0.0733,-0.0747,-0.0749,-0.075,0,0,0,0,0,0,0,0,0,0,0,0,0,-0.0737,-0.0721,-0.0731,-0.0723,-0.0722,-0.0764,-0.0765,-0.0765,-0.0738,-0.0736,-0.0734,-0.0733,-0.0746,-0.0748,-0.075,-0.0796,0,0,-0.0757,-0.0758,0,0,0,0,0,0,0,0,-0.0736,-0.0737,-0.0723,-0.0723,-0.0723,-0.0746,-0.0767,-0.0775,-0.0738,-0.0731,-0.0734,-0.0732,-0.0747,-0.0749,-0.0758,-0.0797,-0.0797,-0.0757,-0.0758,-0.0759,-0.076,0,0,0,0,0,0,0,-0.0735,-0.0736,-0.0743,-0.0724,-0.0724,-0.0744,-0.0744,-0.0768,-0.0747,-0.0731,-0.073,-0.0735,-0.0746,-0.0756,-0.0758,-0.0798,-0.0757,-0.0759,-0.076,-0.0761,-0.0796,-0.0795,0,0,0,0,0,0,-0.073,-0.0734,-0.0742,-0.0745,-0.0726,-0.0745,-0.0745,-0.0739,-0.0747,-0.0747,-0.0737,-0.0734,-0.0753,-0.0755,-0.0758,-0.0748,-0.0759,-0.0761,-0.0762,-0.0796,-0.0796,-0.0795,0,0,0,0,0,0,-0.0729,-0.073,-0.0741,-0.0742,-0.0744,-0.0747,-0.0741,-0.0741,-0.0727,-0.0751,-0.075,-0.072,-0.0752,-0.0755,-0.0741,-0.0751,-0.0762,-0.0764,-0.0796,-0.0796,-0.0795,-0.077,0,0,0,0,0,0,-0.0729,-0.0729,-0.0755,-0.0741,-0.0744,-0.0726,-0.0743,-0.0743,-0.0735,-0.073,-0.0737,-0.0738,-0.0751,-0.0738,-0.0743,-0.0754,-0.0766,-0.0797,-0.0796,-0.0796,-0.0771,-0.0769,-0.0767,0,0,0,0,0,-0.0728,-0.0765,-0.0756,-0.0759,-0.0769,-0.0725,-0.0726,-0.0724,-0.0735,-0.071,-0.0717,-0.0737,-0.0739,-0.0739,-0.0745,-0.0757,-0.0797,-0.0796,-0.0796,-0.0772,-0.0769,-0.0767,0,0,0,0,0,0,-0.0777,-0.0766,-0.0755,-0.0787,-0.0737,-0.0719,-0.0742,-0.0716,-0.0707,-0.0703,-0.0728,-0.0728,-0.0731,-0.074,-0.0739,-0.0764,-0.0774,-0.0775,-0.0754,-0.0752,-0.0749,-0.0694,-0.0767,0,0,0,0,0,-0.08,-0.081,-0.0775,-0.0786,-0.0782,-0.0756,-0.0755,-0.071,-0.0693,-0.0687,-0.0712,-0.0728,-0.0742,-0.0736,-0.0758,-0.0761,-0.076,-0.0774,-0.0772,-0.0769,-0.0728,-0.0752,-0.0748,-0.0793,-0.0793,-0.0793,0,0,-0.0809,-0.0815,-0.0814,-0.0796,-0.0785,-0.075,-0.0749,-0.0706,-0.066,-0.0693,-0.0694,-0.0728,-0.0743,-0.075,-0.0752,-0.0749,-0.0756,-0.0769,-0.0767,-0.0725,-0.0751,-0.0747,-0.0743,-0.0792,-0.0792,-0.0793,0,0,-0.0806,-0.0848,-0.0836,-0.0803,-0.0759,-0.0746,-0.0722,-0.0688,-0.0667,-0.0653,-0.0672,-0.0684,-0.0735,-0.0724,-0.0731,-0.0722,-0.0754,-0.0755,-0.0687,-0.0713,-0.0709,-0.0705,-0.0697,-0.0693,-0.0741,-0.0741,-0.0741,0,-0.0831,-0.0795,-0.0819,-0.0787,-0.0756,-0.0739,-0.067,-0.0662,-0.0618,-0.0592,-0.0644,-0.0696,-0.0717,-0.0688,-0.0685,-0.0716,-0.0728,-0.07,-0.0709,-0.0706,-0.0702,-0.0695,-0.0691,-0.074,-0.074,-0.074,-0.0741,0,-0.0762,-0.0757,-0.0754,-0.0712,-0.0686,-0.0623,-0.0591,-0.0572,-0.0589,-0.0568,-0.0567,-0.0619,-0.0624,-0.0664,-0.0674,-0.0655,-0.0671,-0.0717,-0.0715,-0.0696,-0.069,-0.0686,-0.0738,-0.0739,-0.0739,-0.0739,0,0,-0.0759,-0.0713,-0.0713,-0.0647,-0.0621,-0.0558,-0.0538,-0.0468,-0.0425,-0.0467,-0.0421,-0.0486,-0.0512,-0.0516,-0.0551,-0.0576,-0.0579,-0.0627,-0.0629,-0.0612,-0.0616,-0.0635,-0.0633,-0.0645,-0.0644,-0.0643,-0.062,0,-0.0687,-0.0602,-0.0601,-0.0491,-0.0435,-0.0422,-0.0391,-0.0329,-0.0348,-0.0324,-0.0364,-0.0366,-0.0454,-0.0461,-0.0497,-0.0551,-0.0567,-0.0578,-0.0638,-0.0637,-0.0654,-0.0628,-0.0631,-0.0611,-0.0616,-0.0615,-0.0615,0,-0.0585,-0.0555,-0.0446,-0.0334,-0.0309,-0.0251,-0.0173,-0.0127,-0.0115,-0.013,-0.0157,-0.0209,-0.0214,-0.0325,-0.04,-0.0411,-0.0488,-0.0559,-0.0561,-0.0574,-0.0649,-0.0631,-0.0604,-0.0803,-0.0609,-0.061,-0.061,0,-0.0501,-0.0413,-0.0318,-0.0282,-0.0202,-0.0135,-0.0084,-0.0061,-0.0001,-0.0002,0.0006,-0.0042,-0.0054,-0.0173,-0.0318,-0.0359,-0.0421,-0.0497,-0.0582,-0.0583,-0.0586,-0.0589,-0.0747,-0.0548,-0.0548,-0.0548,-0.0548,0,-0.0399,-0.0307,-0.0261,-0.0208,-0.0067,-0.003,0.0099,0.0117,0.0158,0.0234,0.0127,0.0153,-0.0027,-0.0097,-0.0248,-0.0383,-0.0365,-0.0537,-0.0575,-0.0578,-0.0581,-0.0755,-0.0899,-0.0547,-0.0547,-0.0547,-0.0548,0,-0.0292,-0.0271,-0.0149,-0.0068,-0.0021,0.0086,0.0229,0.0309,0.0309,0.0393,0.04,0.0332,0.0229,0.0044,-0.0126,-0.0274,-0.0541,-0.0477,-0.045,-0.0485,-0.0762,-0.0903,-0.1063,-0.1168,-0.055,-0.0551,-0.0551,0,-0.0195,-0.0151,-0.006,0.0021,0.007,0.0218,0.0315,0.0376,0.0457,0.0501,0.0562,0.0485,0.0456,0.0209,-0.0075,-0.0314,-0.0539,-0.0481,-0.0565,-0.0748,-0.0934,-0.1029,-0.1113,-0.0556,-0.0556,-0.0556,-0.0556,0,-0.0053,-0.006,0.0021,0.0143,0.0267,0.0403,0.0552,0.0637,0.07,0.076,0.0831,0.0812,0.0557,0.0324,-0.0027,-0.0228,-0.065,-0.0493,-0.0701,-0.095,-0.1044,-0.1171,-0.0583,-0.0558,-0.0558,-0.0558,-0.0558,-0.0557,0.0068,0.0133,0.0196,0.0333,0.0452,0.0587,0.072,0.0852,0.0997,0.1105,0.1056,0.1075,0.0686,0.021,-0.0097,-0.0647,-0.0683,-0.0819,-0.0968,-0.1038,-0.117,-0.0565,-0.0586,-0.0586,-0.0586,-0.0586,-0.0586,0,0.023,0.0281,0.0397,0.0548,0.0675,0.0699,0.0881,0.1003,0.118,0.1279,0.1337,0.1183,0.068,0.0161,-0.0567,-0.1003,-0.1196,-0.1274,-0.1425,-0.1484,-0.0947,-0.098,-0.1066,-0.1066,-0.1065,-0.1065,-0.1065,-0.1065,0.0326,0.046,0.0485,0.0715,0.0815,0.0989,0.1087,0.1241,0.1363,0.1519,0.1568,0.1549,0.1206,-0.0219,-0.1181,-0.1452,-0.1817,-0.1915,-0.208,-0.1742,-0.1711,-0.1682,-0.1744,-0.1989,-0.1991,-0.254,-0.2546,-0.255]}],[{"header":{"parameterUnit":"m.s-1","parameterCategory":2,"la1":30.2991,"la2":30.254,"lo1":-89.0895,"lo2":-89.0444,"dy":0.0017,"dx":0.0017,"nx":28,"ny":28,"refTime":"2025-01-18T03:00:00:Z","depth":"2","parameterNumber":2,"parameterNumberName":"U-component_of_CURRENTS"},"data":[0,0,0,0,0,0,0,0,0,0,0,0,0,0,0,0,0,0,0,0,0,0,0,0,0,0,0,0,0,0,0,0,0,0,0,0,0,0,0,0,0,0,0,0,0,0,0,0,0,0,0,0,0,0,0,0,0,0,0.1881,0.1879,0,0.1974,0.1978,0.1982,0.206,0.2057,0.2054,0.2052,0.1998,0.2,0.2001,0,0,0,0,0,0,0,0,0,0,0,0,0,0.1911,0.1913,0.1881,0.1878,0.1876,0.1973,0.1978,0.1984,0.2061,0.2057,0.2054,0.205,0.1998,0.2,0.2001,0,0,0,0,0,0,0,0,0,0,0,0,0,0.198,0.1914,0.1882,0.1895,0.1894,0.1972,0.1978,0.1985,0.2062,0.2057,0.2053,0.2049,0.1997,0.1999,0.2002,0.2105,0,0,0.2008,0.2009,0,0,0,0,0,0,0,0,0.1976,0.1984,0.1896,0.1894,0.1892,0.1964,0.1967,0.2003,0.2063,0.2043,0.2052,0.2046,0.1949,0.1955,0.2045,0.2102,0.21,0.2008,0.2009,0.201,0.2011,0,0,0,0,0,0,0,0.1971,0.1981,0.1961,0.1892,0.189,0.194,0.195,0.1979,0.205,0.2044,0.2039,0.1984,0.1953,0.2043,0.2042,0.2099,0.2008,0.201,0.2011,0.2012,0.2146,0.2148,0,0,0,0,0,0,0.1873,0.1976,0.1957,0.1959,0.1876,0.194,0.1952,0.198,0.2053,0.2048,0.1988,0.1987,0.2042,0.204,0.204,0.2115,0.201,0.2012,0.2013,0.2143,0.2146,0.2149,0,0,0,0,0,0,0.1876,0.1875,0.1952,0.1931,0.1938,0.1939,0.1974,0.1983,0.2049,0.2004,0.2005,0.2033,0.2038,0.2037,0.2042,0.2113,0.2013,0.2015,0.2141,0.2144,0.2147,0.2294,0,0,0,0,0,0,0.1878,0.1878,0.1929,0.1927,0.1934,0.1982,0.1973,0.1987,0.2001,0.2003,0.2043,0.2036,0.2035,0.2039,0.2044,0.2114,0.2017,0.2138,0.2142,0.2146,0.2286,0.2302,0.2315,0,0,0,0,0,0.1881,0.1936,0.1935,0.193,0.1987,0.1978,0.1996,0.2006,0.2007,0.2055,0.2061,0.2033,0.207,0.2043,0.2048,0.212,0.2136,0.2141,0.2146,0.2279,0.2299,0.2315,0,0,0,0,0,0,0.1959,0.1945,0.1943,0.1991,0.1968,0.1974,0.2029,0.2012,0.2079,0.2077,0.2063,0.2059,0.2089,0.208,0.205,0.2168,0.21,0.2107,0.22,0.2218,0.2232,0.224,0.2018,0,0,0,0,0,0.1995,0.2056,0.2002,0.2041,0.2046,0.2049,0.2063,0.204,0.2045,0.2076,0.2089,0.2105,0.2133,0.2145,0.216,0.2233,0.2244,0.228,0.2295,0.2307,0.2317,0.2401,0.2425,0.2166,0.2166,0.2166,0,0,0.2011,0.2022,0.2045,0.2064,0.2088,0.2107,0.2063,0.2063,0.2091,0.2052,0.2151,0.2147,0.2155,0.2231,0.2247,0.2224,0.2391,0.2314,0.2325,0.2327,0.2409,0.2434,0.2457,0.2169,0.2169,0.2168,0,0,0.2054,0.2116,0.217,0.2173,0.2149,0.2158,0.214,0.2143,0.2181,0.2214,0.2211,0.2246,0.2285,0.2336,0.2356,0.2462,0.2452,0.246,0.2565,0.2648,0.267,0.269,0.2759,0.2784,0.2485,0.2486,0.2486,0,0.2082,0.2156,0.2173,0.2212,0.2223,0.2175,0.2206,0.2248,0.2241,0.2277,0.2234,0.2343,0.2349,0.2464,0.2509,0.2501,0.253,0.2502,0.267,0.269,0.2708,0.2773,0.2798,0.2493,0.2492,0.2492,0.2491,0,0.2142,0.2211,0.2246,0.2311,0.2329,0.235,0.2337,0.2386,0.2395,0.2399,0.2479,0.2509,0.2567,0.2593,0.2587,0.2734,0.2709,0.2668,0.2631,0.2743,0.2804,0.2828,0.2504,0.2501,0.2499,0.2497,0,0,0.2187,0.228,0.2289,0.2341,0.239,0.239,0.2476,0.2529,0.2583,0.2595,0.2691,0.2763,0.2754,0.2778,0.2794,0.2879,0.3048,0.2841,0.2841,0.2918,0.3231,0.3165,0.3184,0.3038,0.3043,0.3046,0.3231,0,0.2246,0.234,0.2372,0.2458,0.2524,0.2541,0.2622,0.2646,0.269,0.2771,0.2804,0.2879,0.2833,0.288,0.2959,0.3018,0.3114,0.3001,0.3101,0.3104,0.304,0.3211,0.2908,0.3042,0.3254,0.3257,0.326,0,0.2303,0.238,0.248,0.2575,0.2603,0.2632,0.2762,0.2809,0.2899,0.2934,0.3002,0.3012,0.315,0.3081,0.3252,0.318,0.3225,0.3258,0.3265,0.3166,0.3083,0.2959,0.3077,0.33,0.3296,0.3294,0.3291,0,0.2345,0.2447,0.2546,0.2578,0.2676,0.2729,0.2769,0.2857,0.2914,0.3043,0.3092,0.3208,0.3274,0.3358,0.3412,0.3356,0.3578,0.3507,0.3492,0.3486,0.3228,0.3192,0.3642,0.3642,0.3642,0.3641,0.3641,0,0.242,0.249,0.2565,0.2619,0.2708,0.2757,0.2846,0.291,0.3012,0.3078,0.3163,0.3243,0.3345,0.3455,0.3494,0.3577,0.365,0.3553,0.3551,0.327,0.3238,0.3437,0.341,0.3648,0.3647,0.3645,0.3644,0,0.2433,0.2509,0.2603,0.2705,0.2732,0.2775,0.2841,0.2898,0.301,0.3116,0.3165,0.3307,0.3458,0.3553,0.371,0.3676,0.3771,0.3774,0.3436,0.339,0.3603,0.3582,0.3801,0.3801,0.3801,0.3801,0.38,0,0.244,0.2502,0.2611,0.2647,0.2687,0.2749,0.2791,0.2887,0.2947,0.3133,0.3185,0.3372,0.346,0.3667,0.367,0.3765,0.3821,0.3537,0.338,0.3656,0.3631,0.361,0.359,0.3104,0.3098,0.3093,0.3089,0,0.2436,0.2477,0.2542,0.2607,0.2656,0.2705,0.2769,0.2815,0.2946,0.3033,0.318,0.3278,0.3452,0.3395,0.3502,0.3505,0.3499,0.3443,0.3858,0.3103,0.301,0.2981,0.2982,0.3046,0.3051,0.3054,0.3056,0.3058,0.2393,0.2416,0.2485,0.2525,0.2586,0.2635,0.2628,0.2699,0.2762,0.2836,0.3023,0.3033,0.3117,0.3092,0.3077,0.3078,0.3306,0.3171,0.318,0.3196,0.3075,0.2987,0.2996,0.2999,0.3003,0.3006,0.3008,0,0.2303,0.2346,0.2385,0.2434,0.2435,0.2518,0.2586,0.2529,0.2527,0.2629,0.2687,0.2469,0.2473,0.2586,0.2508,0.2572,0.2489,0.25,0.2347,0.2395,0.2436,0.2269,0.198,0.1976,0.1973,0.197,0,0,0.2279,0.2281,0.2297,0.2261,0.2291,0.2247,0.2263,0.2187,0.2195,0.2118,0.2079,0.2253,0.2433,0.2089,0.2132,0.2039,0.2178,0.1969,0.28,0.2661,0.2696,0.2845,0.2646,0,0,0,0,0]},{"header":{"parameterUnit":"m.s-1","parameterCategory":2,"la1":30.2991,"la2":30.254,"lo1":-89.0895,"lo2":-89.0444,"dy":0.0017,"dx":0.0017,"nx":28,"ny":28,"refTime":"2025-01-18T03:00:00:Z","depth":"2","parameterNumber":3,"parameterNumberName":"V-component_of_CURRENTS"},"data":[0,0,0,0,0,0,0,0,0,0,0,0,0,0,0,0,0,0,0,0,0,0,0,0,0,0,0,0,0,0,0,0,0,0,0,0,0,0,0,0,0,0,0,0,0,0,0,0,0,0,0,0,0,0,0,0,0,0,-0.0294,-0.029,0,-0.0362,-0.0368,-0.0373,-0.0514,-0.0512,-0.051,-0.0508,-0.0541,-0.0544,-0.0546,0,0,0,0,0,0,0,0,0,0,0,0,0,-0.0427,-0.0428,-0.0294,-0.029,-0.0286,-0.0362,-0.0368,-0.0374,-0.0515,-0.0512,-0.051,-0.0507,-0.054,-0.0543,-0.0547,0,0,0,0,0,0,0,0,0,0,0,0,0,-0.047,-0.0428,-0.0295,-0.0327,-0.0327,-0.036,-0.0368,-0.0375,-0.0515,-0.0512,-0.0509,-0.0506,-0.0539,-0.0543,-0.0547,-0.0633,0,0,-0.056,-0.0562,0,0,0,0,0,0,0,0,-0.0467,-0.0472,-0.0326,-0.0324,-0.0323,-0.038,-0.0423,-0.0441,-0.0516,-0.0499,-0.0508,-0.0505,-0.0451,-0.0463,-0.0558,-0.0634,-0.0636,-0.056,-0.0563,-0.0564,-0.0566,0,0,0,0,0,0,0,-0.0464,-0.0469,-0.0375,-0.0321,-0.0319,-0.0381,-0.039,-0.0433,-0.0532,-0.0501,-0.0498,-0.0422,-0.0458,-0.0555,-0.0559,-0.0636,-0.056,-0.0564,-0.0566,-0.0568,-0.0656,-0.0656,0,0,0,0,0,0,-0.0345,-0.0466,-0.0372,-0.0371,-0.033,-0.0377,-0.0388,-0.0408,-0.0532,-0.0533,-0.0424,-0.0427,-0.0549,-0.0554,-0.056,-0.0562,-0.0564,-0.0568,-0.0571,-0.0656,-0.0656,-0.0656,0,0,0,0,0,0,-0.035,-0.0341,-0.0368,-0.0373,-0.0373,-0.0372,-0.0397,-0.041,-0.0482,-0.0465,-0.0476,-0.047,-0.0547,-0.0554,-0.0542,-0.0566,-0.057,-0.0574,-0.0656,-0.0656,-0.0656,-0.063,0,0,0,0,0,0,-0.0357,-0.0346,-0.0403,-0.0367,-0.0366,-0.0356,-0.0394,-0.0412,-0.0414,-0.0421,-0.0508,-0.051,-0.0545,-0.0535,-0.0546,-0.0572,-0.0577,-0.0656,-0.0656,-0.0656,-0.0631,-0.0629,-0.0627,0,0,0,0,0,-0.0363,-0.0378,-0.0409,-0.0395,-0.0422,-0.035,-0.0365,-0.0386,-0.0418,-0.0452,-0.0477,-0.0507,-0.0542,-0.0538,-0.0551,-0.0578,-0.0657,-0.0656,-0.0656,-0.0632,-0.063,-0.0627,0,0,0,0,0,0,-0.0398,-0.0388,-0.0421,-0.0422,-0.0376,-0.0352,-0.0392,-0.0383,-0.0455,-0.0463,-0.0499,-0.0502,-0.0508,-0.0537,-0.0531,-0.06,-0.0609,-0.0611,-0.0587,-0.0585,-0.0583,-0.0529,-0.058,0,0,0,0,0,-0.0439,-0.0515,-0.0431,-0.044,-0.0433,-0.0434,-0.0432,-0.0404,-0.0396,-0.0434,-0.0472,-0.051,-0.0533,-0.0543,-0.0577,-0.0611,-0.0613,-0.0638,-0.0636,-0.0634,-0.0598,-0.0626,-0.0623,-0.0655,-0.0655,-0.0655,0,0,-0.0428,-0.0444,-0.0472,-0.0462,-0.0483,-0.0436,-0.0445,-0.0397,-0.0365,-0.0416,-0.0468,-0.0502,-0.0535,-0.057,-0.0578,-0.0587,-0.0626,-0.0634,-0.0632,-0.0596,-0.0625,-0.0622,-0.0619,-0.0655,-0.0655,-0.0655,0,0,-0.0377,-0.0494,-0.0511,-0.0486,-0.0433,-0.0449,-0.0411,-0.0383,-0.0417,-0.0402,-0.0442,-0.0458,-0.0522,-0.0548,-0.0566,-0.0568,-0.061,-0.0607,-0.0564,-0.0594,-0.0591,-0.0589,-0.0584,-0.0582,-0.0613,-0.0613,-0.0613,0,-0.0379,-0.0404,-0.0482,-0.0441,-0.0422,-0.0438,-0.0376,-0.0405,-0.0363,-0.0368,-0.0389,-0.0458,-0.0505,-0.051,-0.0529,-0.0564,-0.0579,-0.0574,-0.059,-0.0588,-0.0586,-0.0582,-0.058,-0.0612,-0.0612,-0.0612,-0.0612,0,-0.0296,-0.0325,-0.0323,-0.0357,-0.034,-0.0304,-0.027,-0.0296,-0.034,-0.0326,-0.0337,-0.0397,-0.0422,-0.0469,-0.0507,-0.0526,-0.054,-0.0582,-0.0594,-0.0581,-0.0578,-0.0576,-0.061,-0.061,-0.0611,-0.0611,0,0,-0.0302,-0.0291,-0.0287,-0.0282,-0.0309,-0.0247,-0.026,-0.0251,-0.0228,-0.0249,-0.0226,-0.0302,-0.0329,-0.0348,-0.0411,-0.045,-0.0479,-0.0518,-0.052,-0.0506,-0.0525,-0.0538,-0.0537,-0.0541,-0.0541,-0.054,-0.0528,0,-0.0254,-0.0168,-0.0189,-0.0123,-0.0109,-0.0151,-0.0144,-0.0112,-0.0162,-0.0154,-0.0195,-0.0199,-0.0284,-0.0302,-0.0353,-0.0442,-0.0472,-0.0476,-0.0542,-0.0542,-0.0552,-0.0534,-0.051,-0.0498,-0.0526,-0.0525,-0.0525,0,-0.0163,-0.017,-0.0088,-0.005,-0.0042,0.001,-0.0027,0.0008,0.0004,-0.0018,-0.0033,-0.0072,-0.0111,-0.0197,-0.0299,-0.0305,-0.0403,-0.0473,-0.0475,-0.0485,-0.0551,-0.0516,-0.0493,-0.0521,-0.0521,-0.0522,-0.0522,0,-0.0135,-0.0071,-0.0041,-0.0027,0.0005,0.0033,0.0051,0.0053,0.0089,0.0075,0.0094,0.0043,0.0032,-0.009,-0.0248,-0.0285,-0.0354,-0.0425,-0.0507,-0.0508,-0.0491,-0.0492,-0.0484,-0.0484,-0.0485,-0.0485,-0.0485,0,-0.0085,-0.0047,-0.0009,0.0011,0.0078,0.0105,0.0184,0.0187,0.0221,0.0293,0.0187,0.0226,0.0049,-0.0022,-0.0184,-0.0318,-0.0304,-0.0468,-0.0503,-0.0483,-0.0483,-0.0509,-0.0513,-0.0484,-0.0484,-0.0484,-0.0484,0,0.0002,-0.0001,0.0047,0.0076,0.0105,0.0179,0.0304,0.0372,0.0366,0.0445,0.0451,0.0383,0.028,0.0109,-0.0074,-0.0216,-0.0361,-0.0418,-0.0363,-0.0392,-0.0507,-0.0509,-0.0492,-0.0492,-0.0492,-0.0493,-0.0493,0,0.0076,0.01,0.013,0.0173,0.0194,0.0301,0.0385,0.0436,0.0513,0.0551,0.0611,0.0532,0.0502,0.0256,-0.0018,-0.0256,-0.0322,-0.0397,-0.0471,-0.047,-0.0506,-0.0508,-0.0509,-0.0436,-0.0436,-0.0435,-0.0435,0,0.0179,0.0173,0.0206,0.0286,0.037,0.0482,0.061,0.0694,0.0751,0.081,0.0877,0.0855,0.0603,0.0375,0.0029,-0.0152,-0.0362,-0.04,-0.0404,-0.0446,-0.0419,-0.0455,-0.0457,-0.0433,-0.0433,-0.0433,-0.0434,-0.0434,0.0261,0.0313,0.0355,0.045,0.0534,0.0658,0.0783,0.0904,0.1046,0.114,0.109,0.1059,0.0759,0.0334,0.0022,-0.0326,-0.0329,-0.0457,-0.0456,-0.0457,-0.0461,-0.0437,-0.0452,-0.0453,-0.0453,-0.0453,-0.0453,0,0.039,0.0441,0.0533,0.0629,0.0751,0.0761,0.0932,0.1054,0.123,0.128,0.1326,0.1067,0.0773,0.0417,-0.0083,-0.0381,-0.0425,-0.0484,-0.0469,-0.0468,-0.0469,-0.0474,-0.0469,-0.047,-0.0471,-0.0471,0,0,0.0443,0.0557,0.0599,0.0804,0.0883,0.1058,0.1154,0.1304,0.1389,0.1475,0.1447,0.1329,0.0893,0.0537,0.012,-0.0167,-0.0253,-0.0236,-0.0192,-0.0124,-0.012,-0.0423,-0.0427,0,0,0,0,0]}],[{"header":{"parameterUnit":"m.s-1","parameterCategory":2,"la1":30.2991,"la2":30.254,"lo1":-89.0895,"lo2":-89.0444,"dy":0.0017,"dx":0.0017,"nx":28,"ny":28,"refTime":"2025-01-18T03:00:00:Z","depth":"4","parameterNumber":2,"parameterNumberName":"U-component_of_CURRENTS"},"data":[0,0,0,0,0,0,0,0,0,0,0,0,0,0,0,0,0,0,0,0,0,0,0,0,0,0,0,0,0,0,0,0,0,0,0,0,0,0,0,0,0,0,0,0,0,0,0,0,0,0,0,0,0,0,0,0,0,0,0.0517,0.052,0,0.069,0.069,0.069,0.0777,0.0779,0.0781,0.0782,0.0902,0.0903,0.0905,0,0,0,0,0,0,0,0,0,0,0,0,0,0.0249,0.0251,0.0516,0.052,0.0525,0.069,0.069,0.069,0.0776,0.0779,0.0781,0.0783,0.0902,0.0903,0.0905,0,0,0,0,0,0,0,0,0,0,0,0,0,0.0367,0.0252,0.0516,0.0603,0.0614,0.0689,0.069,0.069,0.0776,0.0779,0.0782,0.0784,0.0901,0.0903,0.0905,0.0858,0,0,0.0911,0.0912,0,0,0,0,0,0,0,0,0.036,0.0374,0.0586,0.0597,0.061,0.0733,0.0641,0.0751,0.0775,0.0692,0.0782,0.0786,0.0852,0.0858,0.0855,0.0864,0.0869,0.0911,0.0913,0.0913,0.0914,0,0,0,0,0,0,0,0.0352,0.0368,0.0563,0.0591,0.0606,0.0631,0.0649,0.066,0.0736,0.0699,0.0711,0.0763,0.0856,0.0853,0.0859,0.0871,0.0911,0.0913,0.0914,0.0915,0.0992,0.0993,0,0,0,0,0,0,0.0371,0.036,0.0558,0.0571,0.0514,0.0635,0.0654,0.0673,0.0737,0.0757,0.0761,0.0767,0.0848,0.0856,0.0863,0.0967,0.0913,0.0915,0.0916,0.0991,0.0992,0.0993,0,0,0,0,0,0,0.0364,0.0385,0.0552,0.0488,0.0514,0.0639,0.0658,0.0676,0.0733,0.0789,0.0803,0.0811,0.085,0.0861,0.0917,0.0967,0.0916,0.0918,0.099,0.0992,0.0993,0.1076,0,0,0,0,0,0,0.0354,0.038,0.0392,0.0488,0.0519,0.0614,0.0659,0.0678,0.0768,0.0778,0.0835,0.0846,0.0853,0.0914,0.0919,0.0969,0.092,0.0989,0.0991,0.0992,0.1072,0.1079,0.1086,0,0,0,0,0,0.0343,0.0369,0.039,0.0416,0.0532,0.0616,0.063,0.0716,0.0768,0.0778,0.0834,0.0847,0.0928,0.0916,0.0922,0.0974,0.0989,0.099,0.0992,0.1069,0.1078,0.1086,0,0,0,0,0,0,0.0315,0.0385,0.041,0.047,0.0543,0.064,0.0681,0.074,0.0788,0.0816,0.0855,0.0867,0.0929,0.0931,0.0918,0.0996,0.0961,0.0964,0.1017,0.1026,0.1033,0.1128,0.0921,0,0,0,0,0,0.0301,0.0307,0.0404,0.0459,0.0492,0.0586,0.0637,0.0698,0.077,0.0797,0.0841,0.0887,0.0926,0.0965,0.0975,0.1024,0.1062,0.1059,0.1066,0.1072,0.1151,0.1152,0.1168,0.0999,0.0999,0.0999,0,0,0.0326,0.0359,0.0377,0.0448,0.0508,0.0567,0.0619,0.0712,0.0771,0.0799,0.0875,0.0905,0.0939,0.099,0.102,0.1015,0.1151,0.1075,0.1081,0.1158,0.1156,0.1173,0.1188,0.1001,0.1,0.1,0,0,0.0367,0.0387,0.0401,0.0449,0.0545,0.0585,0.0625,0.0725,0.0769,0.0858,0.0883,0.0954,0.1019,0.1047,0.1077,0.1129,0.1172,0.1134,0.1275,0.1272,0.1288,0.1301,0.1426,0.145,0.1156,0.1157,0.1157,0,0.0396,0.0429,0.0431,0.047,0.0533,0.0601,0.0667,0.0708,0.0818,0.0905,0.0901,0.1056,0.1054,0.1162,0.1196,0.1151,0.121,0.124,0.1285,0.1299,0.1312,0.1436,0.1461,0.1161,0.116,0.116,0.1159,0,0.0431,0.0487,0.0515,0.0553,0.0596,0.0675,0.0738,0.0802,0.0887,0.0988,0.1128,0.1127,0.1266,0.1237,0.1259,0.1359,0.1397,0.1275,0.1271,0.1334,0.1461,0.1486,0.1167,0.1165,0.1164,0.1163,0,0,0.0432,0.052,0.0532,0.0591,0.0655,0.0712,0.079,0.0927,0.1062,0.1146,0.132,0.1384,0.1473,0.1511,0.1499,0.1509,0.1639,0.148,0.1477,0.1626,0.1767,0.1521,0.1526,0.1528,0.1531,0.1534,0.1841,0,0.0475,0.0546,0.058,0.0701,0.0752,0.0836,0.0911,0.1044,0.1168,0.1331,0.1411,0.1571,0.1544,0.1643,0.165,0.1565,0.1705,0.1578,0.1671,0.1678,0.1461,0.1542,0.1545,0.186,0.1866,0.187,0.1873,0,0.0504,0.0531,0.0638,0.0791,0.0828,0.0936,0.1113,0.1194,0.1419,0.1565,0.1764,0.1827,0.1916,0.1855,0.1892,0.1818,0.1906,0.186,0.1866,0.1637,0.1474,0.1767,0.1918,0.1915,0.1911,0.1908,0.1905,0,0.0478,0.0606,0.0691,0.0737,0.0884,0.1018,0.1126,0.1326,0.1432,0.1763,0.1888,0.2035,0.2091,0.2114,0.1982,0.2018,0.1952,0.1961,0.1898,0.1887,0.1985,0.1966,0.217,0.2169,0.2169,0.2168,0.2167,0,0.0517,0.0605,0.0728,0.0791,0.093,0.1052,0.1287,0.1445,0.1673,0.1817,0.203,0.2106,0.2156,0.2071,0.2049,0.1937,0.2019,0.1995,0.1933,0.2019,0.2,0.2007,0.1984,0.2179,0.2177,0.2175,0.2173,0,0.0521,0.0601,0.071,0.0876,0.0947,0.1062,0.1347,0.1498,0.1739,0.1902,0.2016,0.2189,0.2169,0.2085,0.2085,0.1994,0.1906,0.1914,0.2049,0.1977,0.193,0.1908,0.2058,0.2051,0.2046,0.2041,0.2038,0,0.0548,0.0587,0.0727,0.0813,0.094,0.1144,0.1272,0.1536,0.1665,0.1879,0.1899,0.2031,0.2113,0.1886,0.1871,0.1858,0.1854,0.1878,0.1973,0.1987,0.1913,0.19,0.1885,0.2029,0.2027,0.2026,0.2024,0,0.0529,0.0581,0.0655,0.0807,0.0975,0.1096,0.1306,0.1382,0.1619,0.1789,0.1838,0.1884,0.1881,0.1863,0.1793,0.1767,0.1827,0.1826,0.1846,0.1938,0.1952,0.1882,0.1875,0.2005,0.2008,0.201,0.2011,0,0.053,0.054,0.0644,0.0808,0.0952,0.1027,0.1153,0.1296,0.1416,0.1624,0.1615,0.1715,0.1848,0.1822,0.1677,0.1631,0.1795,0.1797,0.1823,0.1845,0.16,0.1576,0.1515,0,0,0,0,0,0.0518,0.0537,0.0644,0.0792,0.0934,0.0999,0.1141,0.1253,0.1415,0.1411,0.1536,0.154,0.1573,0.1618,0.1567,0.1666,0.1772,0.16,0.178,0.19,0.1922,0.1634,0,0,0,0,0,0,0.0515,0.0576,0.0602,0.0742,0.0844,0.0947,0.1013,0.1107,0.1133,0.1304,0.1319,0.1462,0.149,0.1582,0.1541,0.1553,0.1642,0.1671,0.1668,0.1887,0.1907,0.1925,0.1637,0,0,0,0,0]},{"header":{"parameterUnit":"m.s-1","parameterCategory":2,"la1":30.2991,"la2":30.254,"lo1":-89.0895,"lo2":-89.0444,"dy":0.0017,"dx":0.0017,"nx":28,"ny":28,"refTime":"2025-01-18T03:00:00:Z","depth":"4","parameterNumber":3,"parameterNumberName":"V-component_of_CURRENTS"},"data":[0,0,0,0,0,0,0,0,0,0,0,0,0,0,0,0,0,0,0,0,0,0,0,0,0,0,0,0,0,0,0,0,0,0,0,0,0,0,0,0,0,0,0,0,0,0,0,0,0,0,0,0,0,0,0,0,0,0,0.0614,0.0612,0,0.0572,0.0574,0.0575,0.0569,0.0567,0.0565,0.0563,0.042,0.0418,0.0416,0,0,0,0,0,0,0,0,0,0,0,0,0,0.0703,0.0704,0.0614,0.0612,0.0609,0.0572,0.0574,0.0575,0.0569,0.0567,0.0565,0.0563,0.042,0.0418,0.0415,0,0,0,0,0,0,0,0,0,0,0,0,0,0.0687,0.0704,0.0615,0.0583,0.0578,0.0572,0.0574,0.0576,0.057,0.0567,0.0564,0.0562,0.0421,0.0418,0.0415,0.0451,0,0,0.0405,0.0404,0,0,0,0,0,0,0,0,0.0688,0.0687,0.0591,0.0585,0.0579,0.0552,0.0551,0.0521,0.057,0.0599,0.0563,0.056,0.044,0.0436,0.047,0.0444,0.0438,0.0405,0.0403,0.0402,0.0401,0,0,0,0,0,0,0,0.0689,0.0688,0.0622,0.0587,0.058,0.0574,0.0572,0.0548,0.0553,0.0596,0.0589,0.0547,0.044,0.0474,0.0466,0.0436,0.0405,0.0402,0.04,0.0399,0.0353,0.0354,0,0,0,0,0,0,0.0648,0.0689,0.0623,0.0619,0.06,0.0573,0.0571,0.0583,0.0555,0.0542,0.0549,0.0546,0.048,0.047,0.046,0.0484,0.0402,0.0399,0.0397,0.0353,0.0353,0.0354,0,0,0,0,0,0,0.0651,0.0645,0.0624,0.063,0.0624,0.0572,0.0587,0.0583,0.0585,0.0516,0.0505,0.0547,0.0478,0.0465,0.0423,0.0477,0.0397,0.0395,0.0352,0.0353,0.0354,0.0539,0,0,0,0,0,0,0.0655,0.0648,0.0662,0.0629,0.0621,0.0603,0.0587,0.0584,0.0553,0.0549,0.0511,0.0497,0.0474,0.0429,0.042,0.0471,0.0392,0.0351,0.0352,0.0353,0.0532,0.0546,0.0559,0,0,0,0,0,0.066,0.0676,0.0665,0.0655,0.0638,0.0601,0.0601,0.0569,0.0555,0.0564,0.0536,0.0497,0.043,0.0427,0.0417,0.0469,0.035,0.0352,0.0353,0.0526,0.0544,0.0558,0,0,0,0,0,0,0.0712,0.0673,0.0661,0.0664,0.0622,0.059,0.0599,0.0563,0.056,0.0552,0.0506,0.0492,0.0477,0.0432,0.0429,0.0452,0.0384,0.0384,0.0519,0.0534,0.0547,0.0532,0.0389,0,0,0,0,0,0.0728,0.0745,0.0684,0.0686,0.0678,0.0643,0.0626,0.0589,0.0558,0.0557,0.054,0.0508,0.0487,0.0473,0.0445,0.0459,0.0358,0.048,0.0493,0.0505,0.0482,0.0359,0.0359,0.0359,0.0359,0.0359,0,0,0.0731,0.0722,0.072,0.0699,0.0692,0.0676,0.0635,0.0602,0.0595,0.0537,0.0569,0.0546,0.0493,0.0518,0.0508,0.0483,0.0461,0.0507,0.0518,0.0488,0.036,0.036,0.036,0.036,0.036,0.036,0,0,0.0749,0.0765,0.0781,0.0761,0.0714,0.0694,0.0673,0.0645,0.0654,0.0652,0.0619,0.0601,0.0599,0.0577,0.0559,0.061,0.0525,0.063,0.0704,0.0588,0.0587,0.0584,0.0499,0.0487,0.0651,0.0651,0.0652,0,0.076,0.0778,0.0771,0.0778,0.0758,0.07,0.069,0.0697,0.0657,0.0688,0.0666,0.0661,0.0618,0.0621,0.0666,0.0641,0.0577,0.0664,0.0606,0.0601,0.0595,0.0507,0.0492,0.066,0.0659,0.0658,0.0658,0,0.0775,0.0791,0.0805,0.0811,0.0793,0.0776,0.0745,0.0769,0.0773,0.0781,0.0799,0.0749,0.0746,0.075,0.0736,0.0711,0.0682,0.0631,0.0573,0.0606,0.0512,0.0493,0.0673,0.067,0.0667,0.0665,0,0,0.0796,0.0816,0.0817,0.0839,0.0808,0.0797,0.082,0.0839,0.0875,0.0871,0.0913,0.0899,0.0896,0.0869,0.0841,0.0758,0.0692,0.0714,0.0704,0.0643,0.047,0.0478,0.0457,0.0653,0.065,0.0647,0.0438,0,0.0815,0.0831,0.0838,0.0858,0.0863,0.0862,0.0892,0.0901,0.0932,0.0977,0.094,0.0954,0.0935,0.0941,0.0867,0.0708,0.0644,0.0755,0.0432,0.0422,0.0435,0.0434,0.0637,0.0423,0.0418,0.0414,0.0412,0,0.0821,0.0836,0.0865,0.0903,0.0914,0.0938,0.0998,0.1006,0.1054,0.1089,0.1104,0.1074,0.0993,0.0948,0.0698,0.0784,0.0659,0.0527,0.0514,0.043,0.0392,0.0365,0.0375,0.0378,0.038,0.0383,0.0385,0,0.0827,0.0857,0.0899,0.0907,0.0942,0.1007,0.1021,0.1068,0.1092,0.1152,0.1154,0.1097,0.1011,0.0838,0.0619,0.066,0.0305,0.0308,0.0196,0.0196,0.017,0.0174,0.0126,0.0127,0.0127,0.0128,0.0128,0,0.0837,0.0867,0.0929,0.0962,0.1021,0.1037,0.1114,0.1152,0.1178,0.1186,0.1205,0.1135,0.0973,0.0778,0.0608,0.0331,0.0287,0.0189,0.013,0.026,0.0276,0.0158,0.0165,0.012,0.0122,0.0123,0.0124,0,0.0828,0.0867,0.0942,0.1023,0.104,0.1091,0.1132,0.1177,0.1201,0.1188,0.1193,0.112,0.0883,0.0698,0.0378,0.0283,0.0027,-0.0049,0.0111,0.0066,0.0013,0.0032,-0.0187,-0.0189,-0.019,-0.0191,-0.0192,0,0.0809,0.0851,0.0979,0.1016,0.1075,0.1127,0.1152,0.1196,0.1213,0.1136,0.1107,0.0937,0.0863,0.0423,0.0245,-0.0054,-0.0077,-0.0174,-0.0064,0.001,-0.0026,-0.0005,0.0015,-0.0195,-0.0195,-0.0196,-0.0196,0,0.0779,0.0875,0.0949,0.1023,0.1098,0.1126,0.1156,0.116,0.1172,0.1172,0.1023,0.087,0.0621,0.039,0.0179,-0.0045,-0.0095,-0.0189,-0.0186,-0.0083,-0.0002,-0.0031,-0.001,-0.0201,-0.02,-0.02,-0.0199,0,0.0779,0.0828,0.0948,0.1012,0.1081,0.1106,0.1131,0.1109,0.1111,0.1047,0.0962,0.0755,0.0647,0.0384,0.0144,-0.0021,-0.0036,-0.0055,-0.0059,-0.0055,0.0072,0.02,-0.0007,0,0,0,0,0,0.0743,0.0797,0.0874,0.0977,0.105,0.1083,0.1111,0.1133,0.1123,0.1027,0.1009,0.0789,0.05,0.0363,0.0196,0.0127,-0.0064,-0.0071,-0.0086,-0.0229,-0.0223,-0.0092,0,0,0,0,0,0,0.0728,0.0813,0.0868,0.0922,0.0973,0.1041,0.1072,0.1074,0.1019,0.0985,0.0828,0.0761,0.0476,0.0591,0.0193,0.0141,0.0114,-0.0204,-0.0207,-0.0233,-0.0227,-0.0222,-0.0086,0,0,0,0,0]}]]